This is the latest recevied weather packets stored in our database for station/object KC1ELF. If no packets are shown the sender has not sent any weather packets the latest 10 day(s).
| Time | Temp. | Humidity | Pressure | Rain* | Wind** | Luminosity | Snow |
|---|---|---|---|---|---|---|---|
| 1777951896 | 14.44° C | 55% | 1009.5 hPa | 0 mm | - | - | - |
| 1777951295 | 14.44° C | 54% | 1009.5 hPa | 0 mm | - | - | - |
| 1777950695 | 15° C | 54% | 1009.4 hPa | 0 mm | - | - | - |
| 1777950095 | 15° C | 53% | 1009.5 hPa | 0 mm | - | - | - |
| 1777949495 | 15° C | 53% | 1009.5 hPa | 0 mm | - | - | - |
| 1777948895 | 15° C | 52% | 1009.5 hPa | 0 mm | - | - | - |
| 1777948236 | 15.56° C | 52% | 1009.5 hPa | 0 mm | - | - | - |
| 1777947700 | 15.56° C | 51% | 1009.5 hPa | 0 mm | - | - | - |
| 1777947097 | 15.56° C | 50% | 1009.5 hPa | 0 mm | - | - | - |
| 1777946495 | 16.11° C | 50% | 1009.5 hPa | 0 mm | - | - | - |
| 1777945895 | 16.11° C | 49% | 1009.4 hPa | 0 mm | - | - | - |
| 1777945295 | 16.11° C | 48% | 1009.2 hPa | 0 mm | - | - | - |
| 1777944695 | 16.67° C | 48% | 1008.9 hPa | 0 mm | - | - | - |
| 1777944095 | 16.67° C | 47% | 1008.7 hPa | 0 mm | - | - | - |
| 1777943497 | 17.22° C | 47% | 1008.7 hPa | 0 mm | - | - | - |
| 1777942896 | 17.22° C | 45% | 1008.5 hPa | 0 mm | - | - | - |
| 1777942295 | 17.78° C | 45% | 1008.1 hPa | 0 mm | - | - | - |
| 1777941696 | 17.78° C | 44% | 1007.8 hPa | 0 mm | - | - | - |
| 1777941096 | 18.33° C | 43% | 1007.7 hPa | 0 mm | - | - | - |
| 1777940496 | 18.89° C | 41% | 1007.5 hPa | 0 mm | - | - | - |
| 1777939895 | 18.89° C | 40% | 1007.1 hPa | 0 mm | - | - | - |
| 1777939296 | 19.44° C | 37% | 1006.9 hPa | 0 mm | - | - | - |
| 1777938696 | 19.44° C | 37% | 1006.7 hPa | 0 mm | - | - | - |
| 1777938098 | 19.44° C | 37% | 1006.3 hPa | 0 mm | - | - | - |
| 1777937496 | 20° C | 36% | 1006.1 hPa | 0 mm | - | - | - |
* Rain latest hour (hover to see other rain measurements)
** Current wind speed in m/s (hover to see current wind gust speed)